| time (UTC) | temp F | wind direction | speed knots | gust knots | rain 1hr in | rain 24hr in | rain mn in | humidity % | barometer mb |
| 20260507065347 | 56 | 19 | 4.3 | 6.1 | 0.00 | 0.07 | 0.00 | 79 | 1017.1 |
| 20260507064348 | 56 | 26 | 6.1 | 7.8 | 0.00 | 0.07 | 0.00 | 79 | 1016.7 |
| 20260507063432 | 56 | 22 | 5.2 | 6.1 | 0.00 | 0.07 | 0.00 | 79 | 1016.7 |
| 20260507062431 | 56 | 20 | 6.1 | 7.8 | 0.00 | 0.07 | 0.00 | 78 | 1016.8 |
| 20260507061432 | 57 | 22 | 3.5 | 4.3 | 0.00 | 0.07 | 0.00 | 78 | 1016.6 |
| 20260507060433 | 57 | 22 | 3.5 | 5.2 | 0.00 | 0.07 | 0.00 | 77 | 1016.7 |
| 20260507054432 | 57 | 22 | 3.5 | 5.2 | 0.00 | 0.07 | 0.00 | 77 | 1016.7 |
| 20260507051432 | 57 | 35 | 4.3 | 6.1 | 0.00 | 0.07 | 0.00 | 77 | 1016.7 |
| 20260507044549 | 58 | 39 | 4.3 | 7.0 | 0.00 | 0.07 | 0.07 | 75 | 1016.5 |
| 20260507043633 | 58 | 42 | 4.3 | 6.1 | 0.00 | 0.07 | 0.07 | 74 | 1016.7 |
| 20260507042633 | 58 | 30 | 7.8 | 10.4 | 0.00 | 0.07 | 0.07 | 74 | 1016.7 |
| 20260507035734 | 59 | 42 | 9.6 | 15.6 | 0.00 | 0.07 | 0.07 | 73 | 1016.9 |
| 20260507033732 | 60 | 25 | 8.7 | 12.2 | 0.00 | 0.07 | 0.07 | 73 | 1016.9 |
| 20260507032832 | 60 | 29 | 7.8 | 11.3 | 0.00 | 0.07 | 0.07 | 71 | 1016.7 |
| 20260507031833 | 60 | 7 | 8.7 | 14.8 | 0.00 | 0.07 | 0.07 | 72 | 1016.5 |
| 20260507030835 | 61 | 1 | 8.7 | 12.2 | 0.00 | 0.07 | 0.07 | 72 | 1016.7 |
| 20260507025834 | 61 | 5 | 7.8 | 11.3 | 0.00 | 0.07 | 0.07 | 72 | 1016.6 |
| 20260507024848 | 61 | 11 | 9.6 | 12.2 | 0.00 | 0.07 | 0.07 | 71 | 1016.6 |
| 20260507023833 | 61 | 8 | 6.1 | 9.6 | 0.00 | 0.07 | 0.07 | 72 | 1016.4 |
| 20260507022836 | 61 | 10 | 7.0 | 9.6 | 0.00 | 0.07 | 0.07 | 72 | 1016.1 |
| 20260507021933 | 61 | 360 | 6.1 | 8.7 | 0.00 | 0.07 | 0.07 | 74 | 1015.9 |
| 20260507021031 | 61 | 25 | 5.2 | 7.8 | 0.00 | 0.07 | 0.07 | 73 | 1015.7 |
| 20260507020036 | 62 | 35 | 6.1 | 8.7 | 0.00 | 0.07 | 0.07 | 72 | 1015.4 |
| 20260507015033 | 62 | 24 | 4.3 | 6.1 | 0.00 | 0.07 | 0.07 | 70 | 1015.4 |
| 20260507014049 | 62 | 18 | 7.8 | 9.6 | 0.00 | 0.07 | 0.07 | 70 | 1014.9 |
| 20260507013135 | 63 | 22 | 5.2 | 7.0 | 0.00 | 0.07 | 0.07 | 70 | 1014.8 |
| 20260507011133 | 63 | 21 | 5.2 | 8.7 | 0.00 | 0.07 | 0.07 | 70 | 1014.5 |
| 20260507010133 | 63 | 20 | 7.8 | 10.4 | 0.00 | 0.07 | 0.07 | 70 | 1014.2 |
| 20260507005132 | 64 | 20 | 3.5 | 7.0 | 0.00 | 0.07 | 0.07 | 69 | 1014.2 |
| 20260507004132 | 64 | 11 | 6.1 | 7.8 | 0.00 | 0.07 | 0.07 | 68 | 1014.1 |
| 20260507003151 | 64 | 14 | 8.7 | 12.2 | 0.00 | 0.07 | 0.07 | 67 | 1013.9 |
| 20260507002233 | 65 | 9 | 5.2 | 8.7 | 0.00 | 0.07 | 0.07 | 67 | 1014.1 |
| 20260507001249 | 65 | 15 | 7.0 | 9.6 | 0.00 | 0.07 | 0.07 | 66 | 1013.8 |
| 20260507000234 | 64 | 5 | 7.8 | 10.4 | 0.00 | 0.07 | 0.07 | 74 | 1013.8 |
| 20260506235234 | 64 | 48 | 0.0 | 2.6 | 0.00 | 0.07 | 0.07 | 73 | 1013.8 |
| 20260506234250 | 64 | 45 | 0.9 | 3.5 | 0.00 | 0.07 | 0.07 | 74 | 1013.7 |
| 20260506233233 | 63 | 45 | 1.7 | 2.6 | 0.00 | 0.07 | 0.07 | 74 | 1013.3 |
| 20260506231233 | 63 | 72 | 0.0 | 3.5 | 0.00 | 0.07 | 0.07 | 75 | 1013.3 |
| 20260506230332 | 63 | 67 | 2.6 | 3.5 | 0.00 | 0.07 | 0.07 | 73 | 1013.2 |
| 20260506224332 | 62 | 84 | 4.3 | 5.2 | 0.00 | 0.07 | 0.07 | 75 | 1013.4 |
| 20260506223432 | 62 | 67 | 0.9 | 2.6 | 0.03 | 0.07 | 0.07 | 75 | 1013.3 |
| 20260506222432 | 62 | 93 | 2.6 | 5.2 | 0.03 | 0.07 | 0.07 | 77 | 1013.4 |
| 20260506221432 | 61 | 99 | 0.9 | 2.6 | 0.03 | 0.07 | 0.07 | 79 | 1013.5 |
| 20260506215432 | 60 | 45 | 3.5 | 5.2 | 0.03 | 0.07 | 0.07 | 80 | 1013.2 |
| 20260506214435 | 60 | 39 | 0.9 | 2.6 | 0.03 | 0.07 | 0.07 | 78 | 1013.6 |
| 20260506213531 | 61 | 359 | 3.5 | 5.2 | 0.00 | 0.04 | 0.04 | 74 | 1013.4 |
| 20260506212532 | 61 | 22 | 5.2 | 7.0 | 0.00 | 0.04 | 0.04 | 70 | 1013.6 |
| 20260506211534 | 61 | 360 | 6.1 | 7.0 | 0.00 | 0.04 | 0.04 | 70 | 1013.6 |
| 20260506210631 | 61 | 22 | 2.6 | 4.3 | 0.00 | 0.04 | 0.04 | 69 | 1013.3 |
| 20260506205634 | 61 | 11 | 5.2 | 6.1 | 0.00 | 0.04 | 0.04 | 69 | 1013.6 |
| 20260506204732 | 61 | 330 | 6.1 | 7.8 | 0.00 | 0.04 | 0.04 | 70 | 1013.8 |
| 20260506202732 | 60 | 44 | 7.0 | 9.6 | 0.00 | 0.04 | 0.04 | 70 | 1013.6 |
| 20260506201732 | 60 | 14 | 7.0 | 9.6 | 0.00 | 0.04 | 0.04 | 71 | 1013.9 |
| 20260506195731 | 60 | 9 | 5.2 | 8.7 | 0.00 | 0.04 | 0.04 | 70 | 1014.4 |
| 20260506194748 | 59 | 17 | 3.5 | 7.0 | 0.00 | 0.04 | 0.04 | 71 | 1014.5 |
| 20260506193834 | 59 | 346 | 5.2 | 7.8 | 0.00 | 0.04 | 0.04 | 72 | 1014.6 |
| 20260506192932 | 58 | 8 | 6.1 | 7.8 | 0.00 | 0.04 | 0.04 | 73 | 1014.8 |
| 20260506191948 | 58 | 346 | 2.6 | 7.8 | 0.00 | 0.04 | 0.04 | 73 | 1014.9 |
| 20260506191031 | 57 | 21 | 2.6 | 4.3 | 0.00 | 0.04 | 0.04 | 74 | 1014.9 |
| 20260506185033 | 56 | 22 | 3.5 | 6.1 | 0.00 | 0.04 | 0.04 | 76 | 1015.2 |
| 20260506184033 | 56 | 12 | 0.9 | 3.5 | 0.00 | 0.04 | 0.04 | 76 | 1015.4 |
| 20260506183033 | 56 | 345 | 2.6 | 6.1 | 0.00 | 0.04 | 0.04 | 76 | 1015.0 |
| 20260506182048 | 56 | 350 | 4.3 | 7.0 | 0.00 | 0.04 | 0.04 | 77 | 1014.4 |
| 20260506181131 | 55 | 3 | 10.4 | 16.5 | 0.00 | 0.04 | 0.04 | 78 | 1013.7 |
| 20260506180132 | 55 | 336 | 8.7 | 13.0 | 0.00 | 0.04 | 0.04 | 80 | 1013.7 |
| 20260506174133 | 54 | 348 | 11.3 | 14.8 | 0.00 | 0.04 | 0.04 | 81 | 1014.1 |
| 20260506173131 | 54 | 342 | 3.5 | 8.7 | 0.01 | 0.04 | 0.04 | 83 | 1014.6 |
| 20260506172230 | 53 | 354 | 3.5 | 7.0 | 0.01 | 0.04 | 0.04 | 83 | 1014.6 |
| 20260506171233 | 53 | 5 | 4.3 | 7.8 | 0.01 | 0.04 | 0.04 | 84 | 1014.5 |
| 20260506170232 | 53 | 8 | 7.8 | 12.2 | 0.01 | 0.04 | 0.04 | 85 | 1014.5 |
| 20260506165331 | 53 | 10 | 8.7 | 12.2 | 0.01 | 0.04 | 0.04 | 84 | 1014.1 |
| 20260506164248 | 53 | 5 | 7.8 | 12.2 | 0.01 | 0.04 | 0.04 | 84 | 1014.4 |
| 20260506162332 | 52 | 359 | 5.2 | 9.6 | 0.00 | 0.03 | 0.03 | 86 | 1014.6 |
| 20260506161334 | 52 | 358 | 8.7 | 12.2 | 0.00 | 0.03 | 0.03 | 86 | 1014.6 |
| 20260506160431 | 52 | 24 | 6.1 | 9.6 | 0.00 | 0.03 | 0.03 | 89 | 1014.2 |
| 20260506155449 | 52 | 353 | 5.2 | 9.6 | 0.00 | 0.03 | 0.03 | 90 | 1014.4 |
| 20260506154431 | 52 | 1 | 9.6 | 12.2 | 0.02 | 0.03 | 0.03 | 91 | 1013.2 |
| 20260506153431 | 51 | 351 | 6.1 | 10.4 | 0.03 | 0.03 | 0.03 | 91 | 1013.8 |
| 20260506151432 | 51 | 342 | 5.2 | 9.6 | 0.03 | 0.03 | 0.03 | 90 | 1014.8 |
| 20260506145433 | 51 | 7 | 7.0 | 9.6 | 0.03 | 0.03 | 0.03 | 87 | 1014.8 |
| 20260506144431 | 51 | 320 | 5.2 | 7.8 | 0.01 | 0.01 | 0.01 | 85 | 1016.1 |
| 20260506143432 | 51 | 335 | 2.6 | 6.1 | 0.00 | 0.00 | 0.00 | 84 | 1015.8 |
| 20260506142431 | 51 | 340 | 4.3 | 7.8 | 0.00 | 0.00 | 0.00 | 84 | 1015.9 |
| 20260506140432 | 52 | 348 | 6.1 | 11.3 | 0.00 | 0.00 | 0.00 | 83 | 1013.9 |
| 20260506135431 | 52 | 339 | 7.0 | 11.3 | 0.00 | 0.00 | 0.00 | 83 | 1014.5 |
| 20260506134433 | 52 | 313 | 8.7 | 12.2 | 0.00 | 0.00 | 0.00 | 83 | 1014.9 |
| 20260506133432 | 52 | 13 | 10.4 | 14.8 | 0.00 | 0.00 | 0.00 | 82 | 1014.0 |
| 20260506131449 | 52 | 359 | 7.0 | 8.7 | 0.00 | 0.00 | 0.00 | 81 | 1013.6 |
| 20260506130531 | 52 | 1 | 6.1 | 10.4 | 0.00 | 0.00 | 0.00 | 81 | 1013.7 |
| 20260506125533 | 53 | 12 | 8.7 | 13.9 | 0.00 | 0.00 | 0.00 | 80 | 1013.0 |
| 20260506124535 | 53 | 353 | 7.8 | 12.2 | 0.00 | 0.00 | 0.00 | 78 | 1012.8 |
| 20260506123531 | 53 | 342 | 9.6 | 14.8 | 0.00 | 0.00 | 0.00 | 78 | 1012.8 |
| 20260506121631 | 54 | 345 | 6.1 | 10.4 | 0.00 | 0.00 | 0.00 | 76 | 1012.9 |
| 20260506120632 | 54 | 352 | 7.8 | 10.4 | 0.00 | 0.00 | 0.00 | 76 | 1012.4 |
| 20260506115631 | 55 | 359 | 9.6 | 13.0 | 0.00 | 0.00 | 0.00 | 77 | 1012.4 |
| 20260506113633 | 55 | 355 | 7.8 | 10.4 | 0.00 | 0.00 | 0.00 | 76 | 1012.2 |
| 20260506112731 | 55 | 354 | 7.8 | 12.2 | 0.00 | 0.00 | 0.00 | 75 | 1012.2 |
| 20260506110831 | 56 | 356 | 6.1 | 11.3 | 0.00 | 0.00 | 0.00 | 75 | 1011.9 |
| 20260506105830 | 56 | 358 | 6.1 | 7.8 | 0.00 | 0.00 | 0.00 | 75 | 1011.5 |
| 20260506104832 | 56 | 346 | 6.1 | 10.4 | 0.00 | 0.00 | 0.00 | 75 | 1011.6 |
| 20260506103830 | 56 | 341 | 6.1 | 9.6 | 0.00 | 0.00 | 0.00 | 75 | 1011.3 |
| 20260506102832 | 56 | 352 | 4.3 | 8.7 | 0.00 | 0.00 | 0.00 | 77 | 1011.2 |
| 20260506101831 | 56 | 328 | 9.6 | 11.3 | 0.00 | 0.00 | 0.00 | 77 | 1011.2 |
| 20260506095931 | 56 | 4 | 5.2 | 7.8 | 0.00 | 0.00 | 0.00 | 75 | 1010.7 |
| 20260506094031 | 57 | 347 | 4.3 | 6.1 | 0.00 | 0.00 | 0.00 | 76 | 1010.5 |
| 20260506093034 | 57 | 342 | 5.2 | 7.8 | 0.00 | 0.00 | 0.00 | 77 | 1010.6 |
| 20260506092030 | 57 | 344 | 4.3 | 7.8 | 0.00 | 0.00 | 0.00 | 77 | 1010.4 |
| 20260506091033 | 57 | 348 | 7.8 | 9.6 | 0.00 | 0.00 | 0.00 | 78 | 1010.3 |
| 20260506090034 | 57 | 340 | 5.2 | 7.0 | 0.00 | 0.00 | 0.00 | 77 | 1010.5 |
| 20260506085047 | 57 | 334 | 6.1 | 8.7 | 0.00 | 0.00 | 0.00 | 78 | 1010.4 |
| 20260506084129 | 57 | 2 | 5.2 | 7.0 | 0.00 | 0.00 | 0.00 | 78 | 1010.3 |
| 20260506083132 | 57 | 357 | 7.8 | 10.4 | 0.00 | 0.00 | 0.00 | 79 | 1010.2 |
| 20260506082147 | 58 | 351 | 7.8 | 10.4 | 0.00 | 0.00 | 0.00 | 78 | 1010.0 |
| 20260506081231 | 58 | 341 | 7.0 | 10.4 | 0.00 | 0.00 | 0.00 | 79 | 1010.0 |
| 20260506080231 | 58 | 345 | 7.0 | 9.6 | 0.00 | 0.00 | 0.00 | 78 | 1010.0 |
| 20260506072247 | 59 | 7 | 4.3 | 6.1 | 0.00 | 0.00 | 0.00 | 80 | 1009.8 |
| 20260506071232 | 59 | 19 | 8.7 | 12.2 | 0.00 | 0.00 | 0.00 | 80 | 1009.6 |
| 20260506070330 | 59 | 28 | 6.1 | 7.8 | 0.00 | 0.00 | 0.00 | 80 | 1009.6 |